GW1104 Weather Reports


Display with metric or nautical units.
time (UTC)temp
F
wind
direction
speed
MPH
gust
MPH
rain 1hr
in
rain 24hr
in
rain mn
in
humidity
%
barometer
mb
20260504013334 47 297 0.0 0.0 0.00 0.00 0.00 64 1012.5
20260504012336 47 297 0.0 2.0 0.00 0.00 0.00 60 1012.4
20260504011322 48 298 0.0 2.0 0.00 0.00 0.00 58 1012.3
20260504010327 49 297 0.0 0.0 0.00 0.00 0.00 54 1012.2
20260504005321 50 298 0.0 1.0 0.00 0.00 0.00 50 1012.0
20260504004326 52 297 0.0 0.0 0.00 0.00 0.00 48 1012.0
20260504003313 53 297 1.0 2.0 0.00 0.00 0.00 44 1011.9
20260504001315 53 298 2.0 4.0 0.00 0.00 0.00 42 1011.6
20260504000320 54 307 3.0 5.0 0.00 0.00 0.00 41 1011.5
20260503235320 54 302 3.0 8.0 0.00 0.00 0.00 41 1011.3
20260503234324 54 311 5.0 9.0 0.00 0.00 0.00 40 1011.2
20260503233324 55 326 6.0 10.0 0.00 0.00 0.00 39 1011.1
20260503232354 55 318 4.0 11.0 0.00 0.00 0.00 38 1011.1
20260503231325 55 322 8.0 14.0 0.00 0.00 0.00 37 1011.0
20260503230330 56 297 5.0 10.0 0.00 0.00 0.00 36 1011.0
20260503225329 55 324 7.0 14.0 0.00 0.00 0.00 36 1010.9
20260503224314 56 291 7.0 11.0 0.00 0.00 0.00 36 1010.9
20260503223327 56 284 7.0 15.0 0.00 0.00 0.00 35 1010.8
20260503222313 56 291 6.0 9.0 0.00 0.00 0.00 34 1010.7
20260503221320 56 337 3.0 8.0 0.00 0.00 0.00 35 1010.8
20260503220353 56 295 5.0 11.0 0.00 0.00 0.00 34 1010.8
20260503215317 56 311 4.0 10.0 0.00 0.00 0.00 35 1010.8
20260503214322 56 295 7.0 11.0 0.00 0.00 0.00 33 1010.7
20260503213327 56 286 5.0 12.0 0.00 0.00 0.00 34 1010.5
20260503212331 56 241 5.0 15.0 0.00 0.00 0.00 34 1010.5
20260503211336 55 324 10.0 14.0 0.00 0.00 0.00 33 1010.6
20260503210340 55 307 8.0 15.0 0.00 0.00 0.00 34 1010.6
20260503205322 55 315 9.0 17.0 0.00 0.00 0.00 33 1010.7
20260503204335 55 338 6.0 13.0 0.00 0.00 0.00 33 1010.7
20260503203337 55 265 8.0 15.0 0.00 0.00 0.00 33 1010.7
20260503202331 55 272 7.0 17.0 0.00 0.00 0.00 35 1010.8
20260503201335 54 305 7.0 13.0 0.00 0.00 0.00 37 1010.7
20260503200320 54 330 7.0 14.0 0.00 0.00 0.00 34 1010.9
20260503195351 55 326 9.0 17.0 0.00 0.00 0.00 33 1010.8
20260503194315 54 329 10.0 15.0 0.00 0.00 0.00 34 1010.8
20260503193330 54 276 8.0 16.0 0.00 0.00 0.00 36 1010.9
20260503192332 53 233 4.0 14.0 0.00 0.00 0.00 37 1011.1
20260503191338 53 342 9.0 17.0 0.00 0.00 0.00 35 1011.1
20260503190323 52 344 7.0 14.0 0.00 0.00 0.00 38 1011.3
20260503185318 53 275 3.0 15.0 0.00 0.00 0.00 38 1011.3
20260503184322 52 295 5.0 14.0 0.00 0.00 0.00 38 1011.4
20260503183316 51 322 5.0 17.0 0.00 0.00 0.00 39 1011.4
20260503182328 52 290 10.0 15.0 0.00 0.00 0.00 37 1011.4
20260503181326 51 7 6.0 12.0 0.00 0.00 0.00 40 1011.6
20260503180324 51 286 7.0 14.0 0.00 0.00 0.00 41 1011.6
20260503175329 51 314 6.0 10.0 0.00 0.00 0.00 38 1011.8
20260503174331 50 296 9.0 16.0 0.00 0.00 0.00 41 1011.6
20260503173335 49 284 7.0 17.0 0.00 0.00 0.00 43 1011.8
20260503172322 49 299 5.0 15.0 0.00 0.00 0.00 43 1011.9
20260503171325 48 290 5.0 14.0 0.00 0.00 0.00 48 1011.9
20260503170321 48 309 5.0 13.0 0.00 0.00 0.00 46 1012.1
20260503150312 46 330 5.0 11.0 0.00 0.00 0.00 51 1012.4
20260503140313 45 301 8.0 13.0 0.00 0.01 0.00 54 1012.4
20260503131324 43 318 6.0 13.0 0.00 0.01 0.00 62 1012.4
20260503130331 43 9 7.0 15.0 0.00 0.01 0.00 62 1012.5
20260503110314 39 302 3.0 6.0 0.00 0.01 0.00 72 1012.0
20260503090338 40 284 4.0 10.0 0.00 0.05 0.00 68 1011.1
20260503081321 41 278 7.0 12.0 0.00 0.05 0.00 65 1011.1
20260503080348 41 295 6.0 9.0 0.00 0.08 0.00 65 1011.0
20260503072329 42 332 4.0 10.0 0.00 0.08 0.00 63 1010.9
20260503071315 42 354 5.0 12.0 0.00 0.08 0.00 63 1010.9
20260503070345 42 334 4.0 9.0 0.00 0.08 0.00 63 1011.0